RH
42 44 44 45 46 43 38 35 29 23 20 26 39 39 40 28 50 52 51 48 50 55 64 70 78 83 82 74 77 76 76 81 85 89 85 82 79 74 66 55 43 37 35 31
53 60 58 59 59 56 44 41 36 29 25 32 38 42 43 42 43 43 42 45 50 58 63 69 72 76 77 69 71 72 74 77 89 82 83 78 76 67 63 55 42 36 33 29
60 63 60 57 58 58 56 48 42 41 33 34 54 45 45 44 54 45 49 47 49 59 62 64 67 71 71 70 72 71 73 80 84 75 76 68 65 63 59 43 34 30 29 29
64 66 63 64 62 61 59 59 52 47 42 52 56 68 52 56 59 53 51 45 44 53 61 66 67 69 69 72 73 73 77 79 72 71 65 61 64 56 50 40 34 29 29 31
62 63 60 64 60 56 57 61 53 51 45 62 74 63 41 48 59 54 43 42 42 44 53 61 66 69 71 75 78 83 82 76 69 72 61 62 59 56 49 41 36 34 35 37
62 62 66 69 63 57 58 62 59 57 55 80 86 88 42 45 41 43 46 43 45 50 53 57 62 70 76 78 80 83 83 72 70 75 64 61 57 56 49 45 41 41 42 39
66 67 66 69 69 57 54 68 96 95 89 81 79 88 78 61 58 53 48 52 43 48 50 57 60 65 69 72 75 72 68 69 69 68 59 56 56 57 49 48 46 46 42 39
71 80 68 68 68 68 68 72 95 97 85 81 75 64 68 64 57 44 44 39 39 40 42 47 52 55 57 60 64 62 67 66 65 60 56 56 60 52 51 51 49 45 40 36
67 76 69 65 64 61 69 78 90 98 93 96 66 58 52 46 41 43 37 34 34 35 40 41 47 52 57 62 65 68 62 59 58 57 58 61 53 52 53 49 42 36 35 35
59 72 65 64 59 57 63 72 86 95 98 87 63 60 59 45 43 47 44 43 42 46 46 47 52 58 63 62 59 55 57 61 60 60 59 58 56 54 49 40 35 34 30 28
48 63 63 74 58 56 59 73 78 79 73 96 63 44 42 46 46 48 50 52 50 50 53 53 52 51 49 50 53 58 58 59 58 57 58 55 53 46 37 34 29 29 30 32
40 45 55 61 64 59 53 56 67 86 86 73 82 52 44 45 48 44 49 55 53 49 50 49 47 46 48 51 54 55 53 54 56 54 52 50 40 33 28 28 30 32 35 39
37 37 44 53 55 48 44 54 57 64 66 73 77 69 54 48 50 51 47 47 47 47 47 48 48 50 52 51 49 48 50 51 49 49 43 33 26 27 29 31 35 39 44 46
39 36 38 42 38 38 48 49 63 64 73 69 71 61 52 52 50 48 46 46 44 44 45 46 46 44 42 41 41 42 44 45 40 30 25 26 28 31 34 39 43 46 42 35
37 37 33 31 33 30 35 40 53 54 49 51 54 43 42 42 42 44 43 42 40 39 38 36 34 34 36 39 41 41 35 28 24 25 27 30 34 37 42 46 44 38 29 20
36 37 35 33 28 32 32 36 35 35 34 34 33 35 32 30 32 35 36 33 32 33 34 36 38 39 39 37 32 28 24 25 27 29 33 37 41 47 46 41 33 25 20 20
36 36 38 38 31 33 42 35 36 36 35 33 33 34 30 30 31 34 36 37 37 38 39 38 36 34 32 29 25 25 26 29 32 35 40 46 46 43 37 29 21 20 22 27
34 38 39 41 38 43 36 36 35 35 31 29 30 36 36 36 35 34 35 38 37 36 34 32 30 29 26 25 26 27 30 33 37 43 47 44 39 32 25 22 22 26 28 28
36 38 42 43 45 39 37 35 32 31 27 30 29 29 30 27 25 24 24 27 28 28 28 27 25 24 24 25 27 30 34 41 44 44 42 36 31 25 23 23 24 26 26 27
34 38 43 44 54 52 39 36 32 29 29 27 25 23 20 20 24 21 19 20 21 21 20 21 22 23 25 28 32 38 43 41 40 37 30 24 24 24 25 26 27 29 29 30
32 36 42 48 54 46 39 38 36 37 35 28 25 23 21 22 21 20 20 20 20 21 21 22 24 27 30 34 40 41 37 34 29 22 22 24 26 29 29 29 32 31 31 32
34 36 39 42 50 54 40 39 41 40 36 32 28 24 23 23 24 25 25 25 24 23 23 25 28 31 38 40 34 32 29 22 21 23 26 29 33 34 33 35 35 37 37 38
37 32 39 38 43 39 41 45 45 43 40 38 34 34 32 29 28 27 28 28 26 25 26 28 34 40 37 29 25 22 24 21 24 28 34 36 37 37 38 39 40 39 39 36
41 36 38 38 38 38 41 43 44 45 45 42 39 38 35 33 32 28 28 29 27 27 29 35 39 35 28 23 19 19 22 25 28 35 37 39 40 40 40 41 41 36 33 33
46 47 38 35 37 39 40 43 44 46 47 47 43 39 37 34 29 30 31 29 27 29 36 39 33 26 23 20 20 22 26 29 33 39 40 42 43 40 40 37 36 33 34 40
42 37 38 34 40 37 37 39 44 46 47 49 46 44 42 39 33 32 31 29 29 36 40 33 27 23 21 21 23 27 29 34 36 40 41 42 40 38 37 36 33 36 40 47